[[{"header":{"parameterUnit":"m.s-1","parameterCategory":2,"la1":30.2991,"la2":30.254,"lo1":-89.0895,"lo2":-89.0444,"dy":0.0017,"dx":0.0017,"nx":28,"ny":28,"refTime":"2023-10-28T09:00:00:Z","depth":"0","parameterNumber":2,"parameterNumberName":"U-component_of_CURRENTS"},"data":[0,0,0,0,0,0,0,0,0,0,0,0,0,0,0,0,0,0,0,0,0,0,0,0,0,0,0,0,0,0,0,0,0,0,0,0,0,0,0,0,0,0,0,0,0,0,0,0,0,0,0,0,0,0,0,0,0,0,0.3262,0.3262,0,0.3302,0.3303,0.3303,0.3303,0.3303,0.3303,0.3303,0.3315,0.3315,0.3316,0,0,0,0,0,0,0,0,0,0,0,0,0,0.323,0.323,0.3261,0.3262,0.3263,0.3302,0.3303,0.3303,0.3303,0.3303,0.3303,0.3303,0.3315,0.3315,0.3316,0,0,0,0,0,0,0,0,0,0,0,0,0,0.3251,0.323,0.3261,0.3271,0.3272,0.3302,0.3303,0.3303,0.3303,0.3303,0.3303,0.3302,0.3315,0.3315,0.3316,0.3326,0,0,0.3318,0.3319,0,0,0,0,0,0,0,0,0.325,0.3252,0.3269,0.327,0.3272,0.3301,0.3296,0.331,0.3303,0.3288,0.3303,0.3302,0.331,0.3311,0.3315,0.3327,0.3327,0.3318,0.3319,0.3319,0.3319,0,0,0,0,0,0,0,0.3248,0.325,0.3274,0.327,0.3272,0.3289,0.3291,0.3299,0.3297,0.3289,0.329,0.33,0.331,0.3314,0.3315,0.3328,0.3318,0.3319,0.3319,0.332,0.3372,0.3373,0,0,0,0,0,0,0.3248,0.3249,0.3273,0.3276,0.3264,0.329,0.3292,0.3289,0.3297,0.33,0.3301,0.33,0.3313,0.3314,0.3315,0.3353,0.3319,0.332,0.332,0.3371,0.3372,0.3373,0,0,0,0,0,0,0.3247,0.3249,0.3271,0.3267,0.3271,0.3291,0.3287,0.329,0.33,0.3307,0.3308,0.3309,0.3313,0.3314,0.3324,0.3352,0.332,0.3321,0.337,0.3372,0.3373,0.3412,0,0,0,0,0,0,0.3246,0.3248,0.3246,0.3266,0.3272,0.3292,0.3288,0.3291,0.3308,0.3308,0.3315,0.3315,0.3313,0.3323,0.3324,0.3353,0.3321,0.3369,0.3371,0.3372,0.341,0.3415,0.3419,0,0,0,0,0,0.3244,0.3235,0.3245,0.3248,0.3267,0.3292,0.3296,0.3307,0.3309,0.3315,0.3317,0.3315,0.3336,0.3323,0.3326,0.3355,0.3368,0.337,0.3372,0.3408,0.3414,0.3419,0,0,0,0,0,0,0.3215,0.3236,0.3246,0.3243,0.3271,0.3294,0.33,0.3313,0.332,0.3319,0.3321,0.3322,0.3346,0.3341,0.3328,0.3376,0.3355,0.3357,0.3381,0.3387,0.3391,0.3421,0.3322,0,0,0,0,0,0.3211,0.321,0.3241,0.3241,0.3255,0.3282,0.3294,0.3306,0.3319,0.3322,0.3329,0.3338,0.3357,0.3362,0.3373,0.3392,0.3401,0.3415,0.3419,0.3423,0.3449,0.348,0.349,0.338,0.338,0.338,0,0,0.32,0.3213,0.3212,0.3236,0.3257,0.3282,0.3287,0.3309,0.3331,0.3323,0.3344,0.3355,0.3366,0.3391,0.3402,0.339,0.3456,0.3426,0.3429,0.3454,0.3484,0.3494,0.3504,0.3382,0.3382,0.3381,0,0,0.3181,0.3193,0.319,0.3219,0.3256,0.328,0.329,0.3321,0.3335,0.336,0.3366,0.3395,0.3408,0.3432,0.3444,0.3481,0.3482,0.3483,0.353,0.3559,0.3569,0.3577,0.3586,0.3595,0.3483,0.3483,0.3483,0,0.317,0.317,0.3196,0.3213,0.3238,0.3282,0.3299,0.3328,0.3357,0.3379,0.3369,0.343,0.3435,0.349,0.3508,0.3496,0.3504,0.3505,0.3566,0.3575,0.3583,0.359,0.36,0.3485,0.3485,0.3484,0.3484,0,0.3147,0.3166,0.3172,0.3209,0.3242,0.3264,0.3318,0.3352,0.3378,0.3409,0.3465,0.3482,0.352,0.3531,0.3535,0.3604,0.3587,0.357,0.3553,0.3597,0.3601,0.361,0.3488,0.3487,0.3486,0.3486,0,0,0.3063,0.314,0.3139,0.317,0.3242,0.3262,0.3324,0.3385,0.3424,0.3469,0.352,0.3575,0.3597,0.3615,0.3627,0.3665,0.3723,0.3651,0.3651,0.3662,0.378,0.3614,0.3608,0.3716,0.3718,0.372,0.3753,0,0.3035,0.3061,0.3113,0.3158,0.3183,0.3266,0.3317,0.3386,0.3443,0.3502,0.3563,0.3602,0.3623,0.3638,0.3692,0.3713,0.3753,0.3716,0.3735,0.3736,0.3585,0.3616,0.3468,0.3472,0.3762,0.3764,0.3765,0,0.2967,0.3012,0.3036,0.3143,0.316,0.3198,0.3296,0.3351,0.3466,0.3511,0.3594,0.3632,0.3715,0.3709,0.3803,0.3777,0.3798,0.3814,0.3814,0.3659,0.3588,0.3478,0.3478,0.3423,0.3779,0.3778,0.3777,0,0.285,0.2945,0.2962,0.2994,0.3121,0.3158,0.3228,0.3342,0.339,0.351,0.3549,0.3661,0.3692,0.3765,0.3812,0.3809,0.3898,0.388,0.3758,0.3746,0.3624,0.3596,0.3576,0.3956,0.3956,0.3956,0.3956,0,0.2765,0.2784,0.2913,0.2921,0.297,0.3085,0.3139,0.3231,0.3353,0.3404,0.3534,0.3583,0.3709,0.3772,0.3826,0.3811,0.3903,0.3779,0.3748,0.3628,0.36,0.3548,0.3509,0.3957,0.3957,0.3957,0.3957,0,0.2614,0.2687,0.2726,0.2863,0.2903,0.2931,0.3071,0.3117,0.3246,0.3319,0.335,0.3519,0.3584,0.3689,0.3787,0.3776,0.368,0.3779,0.3615,0.3562,0.3333,0.33,0.3101,0.3011,0.363,0.3626,0.3623,0,0.2539,0.254,0.265,0.2673,0.2731,0.2808,0.2859,0.3026,0.3081,0.3263,0.3281,0.339,0.3446,0.353,0.3543,0.3576,0.3533,0.3431,0.3388,0.3303,0.3247,0.3132,0.3065,0.3254,0.3248,0.3243,0.3239,0,0.2429,0.2452,0.2491,0.2535,0.2582,0.2643,0.2737,0.2768,0.2952,0.3018,0.312,0.3185,0.3272,0.3239,0.3265,0.3274,0.3225,0.3321,0.3302,0.2999,0.2809,0.2712,0.3249,0.3195,0.3199,0.3203,0.3205,0.3207,0.2349,0.2337,0.2379,0.2404,0.2447,0.2474,0.2479,0.2582,0.2642,0.2729,0.2888,0.293,0.2997,0.3001,0.2984,0.2863,0.2877,0.2798,0.2784,0.2691,0.253,0.2938,0.2793,0.2794,0.2796,0.2798,0.2799,0,0.2268,0.2251,0.2263,0.2279,0.2261,0.2337,0.2389,0.2377,0.2383,0.2502,0.2566,0.2606,0.2563,0.2612,0.253,0.2399,0.2325,0.2335,0.2212,0.2191,0.2633,0.2545,0.2255,0.2255,0.2255,0.2255,0.2255,0.2255,0.2233,0.2176,0.2167,0.2099,0.2103,0.2059,0.2058,0.2052,0.2109,0.2114,0.2139,0.2209,0.2323,0.2273,0.2152,0.2097,0.1968,0.1804,0.1846,0.2249,0.2295,0.2338,0.2251,0.1904,0.1904,0.1338,0.1333,0.133]},{"header":{"parameterUnit":"m.s-1","parameterCategory":2,"la1":30.2991,"la2":30.254,"lo1":-89.0895,"lo2":-89.0444,"dy":0.0017,"dx":0.0017,"nx":28,"ny":28,"refTime":"2023-10-28T09:00:00:Z","depth":"0","parameterNumber":3,"parameterNumberName":"V-component_of_CURRENTS"},"data":[0,0,0,0,0,0,0,0,0,0,0,0,0,0,0,0,0,0,0,0,0,0,0,0,0,0,0,0,0,0,0,0,0,0,0,0,0,0,0,0,0,0,0,0,0,0,0,0,0,0,0,0,0,0,0,0,0,0,-0.0069,-0.007,0,-0.0161,-0.0162,-0.0163,-0.0219,-0.0219,-0.022,-0.022,-0.0341,-0.0344,-0.0347,0,0,0,0,0,0,0,0,0,0,0,0,0,-0.0007,-0.0007,-0.0069,-0.007,-0.0071,-0.0161,-0.0162,-0.0163,-0.0219,-0.0219,-0.022,-0.022,-0.034,-0.0344,-0.0348,0,0,0,0,0,0,0,0,0,0,0,0,0,-0.0061,-0.0007,-0.0069,-0.0109,-0.0113,-0.016,-0.0162,-0.0164,-0.0219,-0.0219,-0.022,-0.022,-0.0339,-0.0343,-0.0348,-0.0373,0,0,-0.0362,-0.0364,0,0,0,0,0,0,0,0,-0.0058,-0.0063,-0.0102,-0.0106,-0.0111,-0.0177,-0.0184,-0.0235,-0.0219,-0.0181,-0.022,-0.022,-0.0288,-0.0297,-0.0315,-0.0378,-0.0384,-0.0363,-0.0366,-0.0368,-0.0369,0,0,0,0,0,0,0,-0.0054,-0.006,-0.0107,-0.0103,-0.0108,-0.0144,-0.0151,-0.0195,-0.0234,-0.0184,-0.0188,-0.0195,-0.0291,-0.0311,-0.0319,-0.0385,-0.0363,-0.0367,-0.037,-0.0371,-0.0492,-0.0492,0,0,0,0,0,0,-0.0036,-0.0056,-0.0104,-0.011,-0.0082,-0.0144,-0.0153,-0.0157,-0.0233,-0.0244,-0.0195,-0.0198,-0.0303,-0.0313,-0.0323,-0.0348,-0.0367,-0.0372,-0.0375,-0.0492,-0.0492,-0.0493,0,0,0,0,0,0,-0.0034,-0.0039,-0.01,-0.0084,-0.0094,-0.0144,-0.0149,-0.0159,-0.0176,-0.0241,-0.0253,-0.0202,-0.0303,-0.0317,-0.0348,-0.0354,-0.0374,-0.0378,-0.0491,-0.0492,-0.0492,-0.0404,0,0,0,0,0,0,-0.0032,-0.0038,-0.0033,-0.0082,-0.0094,-0.0119,-0.0149,-0.016,-0.018,-0.0184,-0.0251,-0.0262,-0.0305,-0.0341,-0.0353,-0.036,-0.0382,-0.0491,-0.0491,-0.0492,-0.0406,-0.0401,-0.0397,0,0,0,0,0,-0.0029,-0.0019,-0.0032,-0.0038,-0.0086,-0.0118,-0.0128,-0.0166,-0.018,-0.0183,-0.0222,-0.026,-0.0356,-0.0344,-0.0359,-0.0367,-0.049,-0.0491,-0.0492,-0.0408,-0.0402,-0.0397,0,0,0,0,0,0,0.0008,-0.0026,-0.004,-0.0042,-0.0073,-0.0127,-0.0132,-0.0159,-0.0194,-0.0195,-0.0256,-0.027,-0.03,-0.0348,-0.0334,-0.0408,-0.0434,-0.0438,-0.0365,-0.036,-0.0356,-0.0321,-0.0386,0,0,0,0,0,0.002,0.0022,-0.0021,-0.0021,-0.0033,-0.0081,-0.0097,-0.0123,-0.0161,-0.0176,-0.0221,-0.0273,-0.0317,-0.0346,-0.0388,-0.0425,-0.0428,-0.0446,-0.0441,-0.0437,-0.042,-0.0425,-0.0417,-0.0496,-0.0496,-0.0496,0,0,0.0036,0.0017,0.0019,-0.0012,-0.0039,-0.0047,-0.0091,-0.0109,-0.0116,-0.0184,-0.0202,-0.025,-0.032,-0.0356,-0.0377,-0.0396,-0.0413,-0.0438,-0.0434,-0.0419,-0.0425,-0.0416,-0.0409,-0.0496,-0.0496,-0.0496,0,0,0.007,0.0052,0.0064,0.0043,0.0012,-0.0018,-0.0018,-0.0065,-0.0086,-0.011,-0.0161,-0.0205,-0.0274,-0.0325,-0.0361,-0.036,-0.038,-0.0385,-0.0343,-0.0347,-0.034,-0.0333,-0.03,-0.0291,-0.0393,-0.0393,-0.0393,0,0.0092,0.0097,0.0062,0.0065,0.0055,0.0002,0.001,-0.0019,-0.0069,-0.0079,-0.0102,-0.019,-0.0259,-0.03,-0.031,-0.0348,-0.0334,-0.0353,-0.0337,-0.0331,-0.0326,-0.0293,-0.0285,-0.0389,-0.039,-0.039,-0.039,0,0.0135,0.0133,0.0138,0.0128,0.0113,0.011,0.0069,0.0057,0.0027,-0.0005,-0.0038,-0.0118,-0.0173,-0.0214,-0.0266,-0.0278,-0.0271,-0.0317,-0.0338,-0.0311,-0.028,-0.0272,-0.0383,-0.0385,-0.0386,-0.0387,0,0,0.0202,0.0175,0.0178,0.0181,0.0147,0.0142,0.0136,0.0115,0.0125,0.0068,0.0081,-0.0027,-0.0066,-0.0109,-0.0182,-0.0204,-0.017,-0.0242,-0.0244,-0.0185,-0.0134,-0.0147,-0.014,-0.0202,-0.0201,-0.02,-0.0116,0,0.0247,0.0266,0.024,0.026,0.0265,0.0222,0.0224,0.0199,0.0173,0.0174,0.0094,0.0073,-0.0028,-0.0046,-0.0085,-0.0147,-0.015,-0.0185,-0.019,-0.0189,-0.0185,-0.0133,-0.0103,-0.0028,-0.0109,-0.0107,-0.0107,0,0.0307,0.0306,0.0335,0.0325,0.0326,0.0335,0.0341,0.0336,0.0313,0.0294,0.0259,0.0207,0.0155,0.0076,0.0007,-0.0003,-0.0056,-0.0101,-0.01,-0.0136,-0.0189,-0.0078,-0.0012,-0.0095,-0.0096,-0.0096,-0.0097,0,0.0383,0.0379,0.0407,0.0403,0.0384,0.04,0.0397,0.038,0.0394,0.0387,0.0408,0.0334,0.0321,0.0239,0.0116,0.0077,0.0075,0.0002,-0.0046,-0.0046,-0.0036,-0.0037,-0.0034,-0.0018,-0.0018,-0.0018,-0.0018,0,0.0445,0.0466,0.0447,0.0463,0.0506,0.0472,0.0525,0.051,0.0521,0.0565,0.0481,0.0514,0.0363,0.0326,0.0202,0.0117,0.014,-0.0007,-0.0024,-0.0004,-0.0004,-0.0092,-0.0158,-0.0015,-0.0016,-0.0016,-0.0017,0,0.0519,0.0507,0.0538,0.0535,0.0544,0.058,0.061,0.0646,0.0644,0.0712,0.0721,0.0674,0.0628,0.0488,0.0377,0.0242,0.0107,0.0112,0.0164,0.015,-0.0006,-0.0068,-0.0078,-0.0125,0.0083,0.0083,0.0083,0,0.0551,0.0579,0.0605,0.0635,0.0638,0.0682,0.0717,0.0715,0.0762,0.0815,0.0864,0.0846,0.0845,0.0689,0.0468,0.0301,0.0166,0.0196,0.0092,0.002,-0.0063,-0.0111,-0.0154,0.016,0.0161,0.0162,0.0162,0,0.061,0.0629,0.0652,0.0716,0.0762,0.0816,0.087,0.0928,0.0951,0.102,0.1105,0.112,0.0972,0.0822,0.0571,0.0419,0.014,0.0201,0.0112,-0.0004,-0.0039,-0.0103,0.0093,0.0168,0.0167,0.0167,0.0167,0.0167,0.0655,0.069,0.0731,0.0791,0.085,0.0936,0.1,0.1075,0.118,0.1283,0.1294,0.1349,0.1118,0.0783,0.0568,0.0216,0.0185,0.0097,0.0035,-0.0001,-0.0076,0.0146,0.0191,0.0191,0.019,0.019,0.019,0,0.0697,0.0738,0.0797,0.0871,0.0944,0.0966,0.1085,0.1162,0.1306,0.1419,0.15,0.1455,0.1166,0.0827,0.036,0.0106,-0.0013,-0.003,-0.0088,-0.0124,0.0079,0.0049,0.0083,0.0083,0.0083,0.0083,0.0083,0.0083,0.0717,0.0783,0.0809,0.0926,0.0987,0.1093,0.1169,0.1298,0.1409,0.1569,0.1633,0.1655,0.1442,0.0636,0.0097,-0.0044,-0.0222,-0.0243,-0.0347,-0.0213,-0.0206,-0.0199,-0.0242,-0.027,-0.027,-0.051,-0.0513,-0.0514]}],[{"header":{"parameterUnit":"m.s-1","parameterCategory":2,"la1":30.2991,"la2":30.254,"lo1":-89.0895,"lo2":-89.0444,"dy":0.0017,"dx":0.0017,"nx":28,"ny":28,"refTime":"2023-10-28T09:00:00:Z","depth":"2","parameterNumber":2,"parameterNumberName":"U-component_of_CURRENTS"},"data":[0,0,0,0,0,0,0,0,0,0,0,0,0,0,0,0,0,0,0,0,0,0,0,0,0,0,0,0,0,0,0,0,0,0,0,0,0,0,0,0,0,0,0,0,0,0,0,0,0,0,0,0,0,0,0,0,0,0,0.2463,0.2463,0,0.2477,0.2477,0.2477,0.2507,0.2508,0.2508,0.2509,0.252,0.252,0.252,0,0,0,0,0,0,0,0,0,0,0,0,0,0.2437,0.2438,0.2463,0.2463,0.2463,0.2477,0.2477,0.2477,0.2507,0.2508,0.2508,0.2509,0.252,0.252,0.252,0,0,0,0,0,0,0,0,0,0,0,0,0,0.2449,0.2438,0.2463,0.248,0.2482,0.2477,0.2477,0.2477,0.2507,0.2508,0.2509,0.251,0.252,0.252,0.2519,0.2497,0,0,0.2518,0.2518,0,0,0,0,0,0,0,0,0.2448,0.245,0.2478,0.2479,0.2481,0.2491,0.2472,0.2484,0.2506,0.2497,0.2509,0.251,0.251,0.251,0.251,0.2497,0.2498,0.2518,0.2518,0.2518,0.2517,0,0,0,0,0,0,0,0.2447,0.2449,0.2468,0.2478,0.248,0.2479,0.2482,0.2474,0.2497,0.2498,0.25,0.2502,0.2511,0.251,0.2511,0.2498,0.2518,0.2518,0.2517,0.2517,0.2563,0.2564,0,0,0,0,0,0,0.2447,0.2449,0.2467,0.2468,0.2467,0.2478,0.2482,0.2487,0.2497,0.25,0.2501,0.2503,0.2511,0.2511,0.2511,0.2557,0.2518,0.2517,0.2517,0.2562,0.2563,0.2565,0,0,0,0,0,0,0.2446,0.2449,0.2467,0.2459,0.2461,0.2478,0.2483,0.2486,0.2497,0.25,0.2503,0.251,0.2512,0.2512,0.2533,0.2555,0.2517,0.2516,0.256,0.2562,0.2564,0.2603,0,0,0,0,0,0,0.2446,0.2448,0.2456,0.2459,0.2462,0.2477,0.2482,0.2486,0.2497,0.25,0.2508,0.251,0.2512,0.2534,0.2532,0.2554,0.2516,0.2558,0.2561,0.2563,0.26,0.2607,0.2612,0,0,0,0,0,0.2445,0.2445,0.2456,0.2458,0.247,0.2477,0.2479,0.2493,0.2496,0.2505,0.2522,0.251,0.2551,0.2534,0.2532,0.2554,0.2557,0.256,0.2563,0.2598,0.2606,0.2612,0,0,0,0,0,0,0.2432,0.2448,0.246,0.2465,0.2479,0.2483,0.2495,0.2495,0.2512,0.2523,0.252,0.2524,0.2556,0.2548,0.2529,0.2579,0.2555,0.2558,0.2582,0.2589,0.2595,0.2602,0.2516,0,0,0,0,0,0.2434,0.2442,0.2458,0.2462,0.2477,0.2486,0.2491,0.2501,0.2513,0.2522,0.2528,0.2544,0.2564,0.2571,0.2586,0.2599,0.26,0.2616,0.2622,0.2627,0.2634,0.2663,0.2672,0.2576,0.2576,0.2576,0,0,0.2433,0.2439,0.2447,0.2461,0.2478,0.2491,0.2493,0.251,0.2521,0.2519,0.2544,0.2563,0.2575,0.2607,0.2619,0.2603,0.2656,0.2632,0.2636,0.264,0.2667,0.2676,0.2684,0.2578,0.2578,0.2578,0,0,0.2428,0.2445,0.2456,0.2472,0.2497,0.2499,0.2506,0.2523,0.2542,0.2566,0.2578,0.2614,0.2627,0.265,0.266,0.2704,0.269,0.2708,0.2737,0.2765,0.2773,0.278,0.2789,0.2797,0.2707,0.2707,0.2707,0,0.2429,0.2438,0.2459,0.2475,0.2488,0.2504,0.2518,0.2534,0.2554,0.2574,0.2585,0.2642,0.2653,0.2694,0.2722,0.2717,0.2724,0.2706,0.2772,0.2779,0.2785,0.2794,0.2801,0.2709,0.2709,0.2708,0.2708,0,0.2435,0.2448,0.2458,0.2483,0.2499,0.2514,0.2543,0.2565,0.2587,0.2605,0.2664,0.2695,0.2732,0.2744,0.2748,0.2801,0.2788,0.2778,0.275,0.2797,0.2803,0.281,0.2712,0.2711,0.2711,0.271,0,0,0.2414,0.2455,0.2457,0.2472,0.2506,0.2514,0.255,0.2581,0.2611,0.2654,0.27,0.2755,0.2783,0.2798,0.2814,0.2841,0.2896,0.2833,0.2834,0.2837,0.2948,0.2859,0.2858,0.2897,0.2898,0.29,0.2932,0,0.2411,0.2431,0.2454,0.2472,0.2488,0.2526,0.2552,0.2589,0.2634,0.2685,0.274,0.2791,0.2799,0.2833,0.2866,0.2896,0.2918,0.2887,0.2908,0.2908,0.2818,0.2864,0.2638,0.264,0.2939,0.294,0.2941,0,0.2402,0.2414,0.2435,0.2469,0.2484,0.2501,0.2555,0.2585,0.2663,0.2707,0.2777,0.2823,0.2893,0.289,0.296,0.2941,0.2952,0.2964,0.2965,0.2873,0.2833,0.2644,0.2642,0.2953,0.2952,0.2951,0.295,0,0.2357,0.2394,0.2404,0.242,0.2467,0.2494,0.2522,0.2594,0.263,0.2731,0.2774,0.2861,0.291,0.2954,0.2994,0.2987,0.3053,0.3041,0.2965,0.2958,0.2764,0.2737,0.3081,0.308,0.308,0.308,0.308,0,0.2329,0.2335,0.239,0.2396,0.2414,0.2471,0.2511,0.2559,0.2645,0.2688,0.2785,0.2835,0.2931,0.2982,0.301,0.3009,0.3066,0.2979,0.2966,0.277,0.2745,0.3014,0.3006,0.3081,0.3081,0.3081,0.3081,0,0.2273,0.2308,0.232,0.2376,0.2392,0.241,0.2483,0.2516,0.2606,0.2672,0.2708,0.2825,0.2896,0.2964,0.3034,0.3009,0.3029,0.3005,0.2763,0.272,0.2912,0.2906,0.2936,0.2933,0.2931,0.2929,0.2927,0,0.2244,0.2248,0.2291,0.2299,0.2326,0.2366,0.2389,0.2479,0.2519,0.2652,0.2673,0.2782,0.2829,0.2895,0.2887,0.2904,0.2977,0.2679,0.2624,0.2916,0.29,0.2898,0.2895,0.2384,0.2378,0.2373,0.237,0,0.2189,0.221,0.2224,0.2237,0.226,0.2278,0.2328,0.235,0.2459,0.2508,0.258,0.2638,0.2713,0.2629,0.2649,0.2628,0.2664,0.2579,0.2951,0.2455,0.2398,0.2382,0.2397,0.2326,0.2331,0.2334,0.2336,0.2338,0.2149,0.2142,0.2163,0.2163,0.2182,0.2183,0.2166,0.2226,0.2253,0.2303,0.242,0.2412,0.2449,0.2367,0.2297,0.2242,0.2435,0.2321,0.2335,0.2355,0.2284,0.2226,0.2108,0.2111,0.2114,0.2116,0.2118,0,0.2083,0.2083,0.2086,0.2073,0.2046,0.2092,0.2105,0.2068,0.2048,0.2123,0.2153,0.199,0.1929,0.1968,0.1821,0.1818,0.1797,0.1736,0.1692,0.1737,0.1776,0.1675,0.1338,0.1335,0.1333,0.1331,0,0,0.2052,0.2021,0.201,0.1933,0.1925,0.1858,0.1841,0.1807,0.1818,0.177,0.1738,0.1866,0.1923,0.1614,0.1571,0.1429,0.1572,0.1368,0.1999,0.1993,0.2029,0.2122,0.2018,0,0,0,0,0]},{"header":{"parameterUnit":"m.s-1","parameterCategory":2,"la1":30.2991,"la2":30.254,"lo1":-89.0895,"lo2":-89.0444,"dy":0.0017,"dx":0.0017,"nx":28,"ny":28,"refTime":"2023-10-28T09:00:00:Z","depth":"2","parameterNumber":3,"parameterNumberName":"V-component_of_CURRENTS"},"data":[0,0,0,0,0,0,0,0,0,0,0,0,0,0,0,0,0,0,0,0,0,0,0,0,0,0,0,0,0,0,0,0,0,0,0,0,0,0,0,0,0,0,0,0,0,0,0,0,0,0,0,0,0,0,0,0,0,0,0.0281,0.0281,0,0.025,0.025,0.0249,0.0221,0.0221,0.022,0.022,0.018,0.0179,0.0178,0,0,0,0,0,0,0,0,0,0,0,0,0,0.0301,0.0301,0.0281,0.0281,0.0281,0.025,0.025,0.0249,0.0221,0.0221,0.022,0.022,0.018,0.0179,0.0178,0,0,0,0,0,0,0,0,0,0,0,0,0,0.0282,0.0301,0.0281,0.0264,0.0262,0.0251,0.025,0.0249,0.0221,0.0221,0.022,0.022,0.018,0.0179,0.0178,0.0176,0,0,0.0174,0.0173,0,0,0,0,0,0,0,0,0.0283,0.0281,0.0267,0.0265,0.0263,0.024,0.0242,0.0225,0.0221,0.0235,0.022,0.022,0.02,0.0197,0.019,0.0174,0.0173,0.0174,0.0173,0.0172,0.0172,0,0,0,0,0,0,0,0.0285,0.0282,0.0267,0.0266,0.0264,0.0253,0.025,0.0239,0.0219,0.0234,0.0232,0.0231,0.0199,0.0192,0.0189,0.0172,0.0174,0.0173,0.0172,0.0171,0.014,0.014,0,0,0,0,0,0,0.0292,0.0284,0.0268,0.0267,0.0274,0.0253,0.0249,0.0247,0.0219,0.0215,0.0231,0.023,0.0194,0.0191,0.0188,0.019,0.0172,0.0171,0.017,0.014,0.014,0.014,0,0,0,0,0,0,0.0293,0.0291,0.027,0.0276,0.0272,0.0253,0.025,0.0246,0.0241,0.0217,0.0213,0.023,0.0194,0.0189,0.0179,0.0188,0.017,0.0169,0.014,0.014,0.014,0.0191,0,0,0,0,0,0,0.0294,0.0292,0.0293,0.0276,0.0272,0.0269,0.0251,0.0246,0.0241,0.0239,0.0215,0.0211,0.0193,0.0181,0.0178,0.0186,0.0168,0.014,0.014,0.014,0.0189,0.0192,0.0195,0,0,0,0,0,0.0294,0.03,0.0293,0.0292,0.0275,0.027,0.0267,0.0251,0.0242,0.0244,0.0224,0.0211,0.0178,0.018,0.0176,0.0184,0.014,0.014,0.014,0.0188,0.0192,0.0195,0,0,0,0,0,0,0.031,0.0297,0.029,0.0291,0.0284,0.0266,0.0266,0.0256,0.0242,0.0239,0.0214,0.0209,0.02,0.0184,0.0187,0.0173,0.0156,0.0155,0.0193,0.0197,0.02,0.0224,0.0167,0,0,0,0,0,0.0315,0.0316,0.0302,0.0305,0.0301,0.0284,0.028,0.0271,0.0257,0.025,0.0233,0.0213,0.0196,0.0191,0.0172,0.017,0.0151,0.017,0.0173,0.0176,0.0192,0.0164,0.0167,0.014,0.014,0.014,0,0,0.0323,0.0316,0.0318,0.0309,0.0299,0.0304,0.028,0.0279,0.0286,0.0249,0.0249,0.0223,0.0196,0.019,0.0185,0.018,0.0172,0.0176,0.0179,0.0193,0.0165,0.0167,0.017,0.0139,0.0139,0.0139,0,0,0.0343,0.0333,0.034,0.0335,0.0327,0.0321,0.0323,0.0308,0.0302,0.03,0.0271,0.0255,0.0232,0.0216,0.0205,0.0215,0.0185,0.0202,0.0244,0.0217,0.022,0.0221,0.0195,0.0195,0.0208,0.0208,0.0208,0,0.0354,0.0359,0.0342,0.0348,0.0352,0.0332,0.0346,0.0338,0.0323,0.0325,0.0307,0.0274,0.0248,0.0245,0.0244,0.0225,0.0202,0.0235,0.0223,0.0224,0.0225,0.0198,0.0197,0.021,0.021,0.021,0.021,0,0.0378,0.0382,0.0386,0.0389,0.0392,0.04,0.0392,0.0394,0.0385,0.0376,0.0368,0.0331,0.0315,0.0297,0.0275,0.0271,0.0249,0.0227,0.0218,0.0232,0.0201,0.0199,0.0214,0.0213,0.0212,0.0212,0,0,0.0409,0.0404,0.0408,0.0419,0.0416,0.0426,0.0438,0.0447,0.0463,0.0439,0.0454,0.0416,0.0394,0.038,0.0344,0.0322,0.0303,0.0284,0.0281,0.0267,0.0241,0.0229,0.0225,0.0275,0.0275,0.0275,0.0216,0,0.0436,0.0457,0.0449,0.0481,0.0494,0.0485,0.0504,0.0509,0.0504,0.0511,0.0476,0.0471,0.0426,0.0418,0.0389,0.0326,0.0299,0.0321,0.0223,0.0221,0.0216,0.0223,0.0243,0.0192,0.0213,0.0213,0.0212,0,0.0468,0.0478,0.0509,0.0533,0.0539,0.0559,0.0592,0.0604,0.0604,0.0599,0.0585,0.0552,0.0525,0.0478,0.0391,0.0405,0.0333,0.0279,0.0275,0.0249,0.0205,0.0182,0.0187,0.0208,0.0208,0.0209,0.0209,0,0.0508,0.0527,0.0558,0.0564,0.0583,0.0606,0.0622,0.0634,0.0658,0.0655,0.067,0.0621,0.0606,0.0516,0.0407,0.0396,0.0305,0.0271,0.0193,0.019,0.0183,0.0181,0.0208,0.0208,0.0208,0.0208,0.0208,0,0.0545,0.0571,0.058,0.0599,0.0651,0.0649,0.0705,0.0711,0.0731,0.0773,0.072,0.0737,0.0614,0.0546,0.0434,0.0314,0.0322,0.0209,0.0179,0.02,0.0199,0.0195,0.0194,0.0206,0.0207,0.0207,0.0207,0,0.0585,0.0587,0.0626,0.0654,0.0671,0.071,0.0763,0.08,0.081,0.0862,0.0867,0.0824,0.0743,0.061,0.0465,0.0358,0.0236,0.0186,0.0222,0.0197,0.0131,0.0133,0.0097,0.0096,0.0096,0.0095,0.0095,0,0.0604,0.0628,0.0672,0.0703,0.072,0.0774,0.0817,0.0842,0.0887,0.0922,0.0954,0.0895,0.0871,0.0655,0.0462,0.0271,0.0236,0.0148,0.0131,0.0148,0.0121,0.0125,0.0128,0.0134,0.0134,0.0133,0.0133,0,0.0645,0.0661,0.0692,0.0753,0.0804,0.0865,0.0928,0.0977,0.1018,0.1061,0.1101,0.1083,0.0899,0.072,0.0457,0.032,0.0181,0.014,0.0148,0.0163,0.0179,0.0154,0.0157,0.0132,0.0133,0.0133,0.0133,0.0133,0.0678,0.0706,0.0746,0.0807,0.0866,0.0946,0.1006,0.1076,0.1157,0.122,0.1204,0.1176,0.0978,0.065,0.0423,0.0177,0.0191,0.0091,0.0093,0.0095,0.0114,0.0128,0.0076,0.0075,0.0075,0.0075,0.0075,0,0.0711,0.0743,0.0797,0.0867,0.0932,0.0962,0.1072,0.1133,0.1232,0.1281,0.1309,0.1113,0.0918,0.0678,0.0331,0.0124,0.0101,0.0039,0.0065,0.0069,0.0071,0.009,0.0044,0.0043,0.0042,0.0042,0,0,0.0728,0.0779,0.08,0.0903,0.0959,0.1054,0.112,0.1212,0.1273,0.1316,0.1296,0.1263,0.0992,0.073,0.0454,0.0253,0.0199,0.0199,0.0248,0.0317,0.0321,0.0128,0.0164,0,0,0,0,0]}],[{"header":{"parameterUnit":"m.s-1","parameterCategory":2,"la1":30.2991,"la2":30.254,"lo1":-89.0895,"lo2":-89.0444,"dy":0.0017,"dx":0.0017,"nx":28,"ny":28,"refTime":"2023-10-28T09:00:00:Z","depth":"4","parameterNumber":2,"parameterNumberName":"U-component_of_CURRENTS"},"data":[0,0,0,0,0,0,0,0,0,0,0,0,0,0,0,0,0,0,0,0,0,0,0,0,0,0,0,0,0,0,0,0,0,0,0,0,0,0,0,0,0,0,0,0,0,0,0,0,0,0,0,0,0,0,0,0,0,0,0.1474,0.1475,0,0.1463,0.1462,0.1461,0.1467,0.1468,0.1469,0.147,0.149,0.1489,0.1489,0,0,0,0,0,0,0,0,0,0,0,0,0,0.1443,0.1444,0.1474,0.1475,0.1475,0.1463,0.1462,0.1461,0.1467,0.1468,0.1469,0.147,0.149,0.1489,0.1489,0,0,0,0,0,0,0,0,0,0,0,0,0,0.1441,0.1444,0.1474,0.1481,0.1482,0.1463,0.1462,0.1461,0.1467,0.1468,0.1469,0.147,0.149,0.1489,0.1489,0.1461,0,0,0.1488,0.1488,0,0,0,0,0,0,0,0,0.1441,0.1441,0.148,0.148,0.1482,0.1473,0.1459,0.1465,0.1466,0.1466,0.147,0.1471,0.149,0.1489,0.1476,0.1462,0.1463,0.1488,0.1488,0.1487,0.1487,0,0,0,0,0,0,0,0.1441,0.1442,0.1464,0.148,0.1481,0.1465,0.1466,0.1459,0.1467,0.1466,0.1468,0.1476,0.149,0.1476,0.1476,0.1463,0.1488,0.1487,0.1487,0.1487,0.1541,0.1542,0,0,0,0,0,0,0.1456,0.1442,0.1464,0.1464,0.1471,0.1465,0.1466,0.1469,0.1466,0.1469,0.1475,0.1476,0.1476,0.1477,0.1477,0.1536,0.1487,0.1487,0.1487,0.1539,0.1541,0.1543,0,0,0,0,0,0,0.1456,0.1458,0.1465,0.1458,0.1458,0.1465,0.1469,0.1469,0.1492,0.1474,0.1476,0.1503,0.1477,0.1478,0.1511,0.1534,0.1487,0.1486,0.1537,0.154,0.1542,0.1596,0,0,0,0,0,0,0.1455,0.1458,0.1478,0.1459,0.1459,0.1477,0.1468,0.1468,0.1495,0.1498,0.1498,0.1499,0.1478,0.1512,0.1511,0.1533,0.1486,0.1535,0.1538,0.1541,0.1592,0.16,0.1607,0,0,0,0,0,0.1453,0.1472,0.1479,0.1483,0.1483,0.1478,0.1477,0.1481,0.1496,0.1506,0.152,0.1501,0.1531,0.1513,0.1511,0.1534,0.1534,0.1537,0.1541,0.1589,0.1599,0.1607,0,0,0,0,0,0,0.1467,0.1474,0.1482,0.1502,0.1504,0.1482,0.1497,0.1503,0.1518,0.1534,0.1519,0.1521,0.1559,0.1544,0.1525,0.1561,0.153,0.1534,0.1567,0.1576,0.1583,0.1571,0.1486,0,0,0,0,0,0.1481,0.1502,0.1497,0.1519,0.1521,0.1517,0.1523,0.1528,0.1533,0.1542,0.1547,0.1557,0.1564,0.1572,0.1573,0.1591,0.159,0.1606,0.1614,0.162,0.1611,0.1653,0.1663,0.1555,0.1555,0.1555,0,0,0.1495,0.1503,0.1516,0.1525,0.1524,0.1527,0.1523,0.1541,0.1553,0.1542,0.1575,0.1586,0.1577,0.1599,0.1614,0.1594,0.1653,0.1625,0.163,0.1617,0.1658,0.1669,0.1678,0.1558,0.1557,0.1557,0,0,0.1514,0.1536,0.1551,0.1557,0.1571,0.1563,0.158,0.1581,0.1593,0.1621,0.1622,0.1652,0.1661,0.1656,0.1653,0.1703,0.1695,0.1716,0.1736,0.1778,0.1787,0.1794,0.1814,0.1823,0.1714,0.1714,0.1715,0,0.1532,0.1547,0.1556,0.1566,0.1576,0.1585,0.1594,0.1599,0.1619,0.1639,0.1645,0.1683,0.168,0.17,0.1715,0.1717,0.1739,0.17,0.1787,0.1794,0.1801,0.1819,0.1828,0.1718,0.1717,0.1717,0.1717,0,0.1547,0.157,0.1579,0.1594,0.1606,0.1619,0.1625,0.1652,0.1677,0.1687,0.1735,0.1734,0.1759,0.1764,0.1749,0.1798,0.1798,0.1796,0.1761,0.1815,0.1831,0.184,0.1722,0.1721,0.172,0.1719,0,0,0.1549,0.1582,0.1591,0.1601,0.1624,0.1628,0.166,0.1681,0.1714,0.1743,0.1783,0.1796,0.1819,0.1818,0.1817,0.1838,0.1904,0.1841,0.1842,0.1853,0.1997,0.1871,0.1867,0.1931,0.1933,0.1934,0.1989,0,0.1556,0.1582,0.16,0.1626,0.163,0.1657,0.1682,0.1715,0.1745,0.1789,0.1806,0.1848,0.1833,0.1861,0.1883,0.1906,0.1929,0.1888,0.1947,0.1947,0.1824,0.1874,0.194,0.1996,0.1997,0.1999,0.2,0,0.1556,0.1573,0.1603,0.1636,0.1644,0.1671,0.1721,0.1747,0.1807,0.1838,0.1887,0.191,0.1953,0.1933,0.1994,0.1979,0.1992,0.1996,0.1998,0.1861,0.1837,0.193,0.2015,0.2014,0.2013,0.2012,0.2011,0,0.1537,0.1573,0.16,0.1612,0.1653,0.1687,0.1719,0.1777,0.1805,0.1887,0.1927,0.1981,0.2023,0.2053,0.2069,0.2054,0.2125,0.2107,0.1999,0.199,0.2063,0.2053,0.2147,0.2147,0.2147,0.2147,0.2147,0,0.1517,0.1542,0.1602,0.1615,0.1652,0.1693,0.1745,0.179,0.1857,0.1895,0.1965,0.1994,0.2062,0.2105,0.2104,0.2077,0.2166,0.2,0.1997,0.2085,0.2078,0.2069,0.2059,0.2149,0.2148,0.2148,0.2148,0,0.1482,0.1525,0.1555,0.1619,0.1644,0.1677,0.175,0.1779,0.1866,0.1919,0.1955,0.2039,0.2095,0.2134,0.2184,0.2113,0.2104,0.2072,0.2164,0.2165,0.1929,0.1922,0.1948,0.1944,0.194,0.1938,0.1935,0,0.1456,0.1475,0.1555,0.1577,0.1612,0.1667,0.1697,0.1777,0.1805,0.1921,0.1935,0.2032,0.2073,0.2035,0.2093,0.2088,0.2058,0.2035,0.1963,0.1915,0.191,0.1908,0.1905,0.193,0.1929,0.1928,0.1927,0,0.1405,0.1459,0.149,0.1537,0.1579,0.1603,0.1659,0.1665,0.1755,0.1852,0.1864,0.1878,0.1933,0.1952,0.197,0.1959,0.2037,0.1999,0.2005,0.1937,0.1894,0.1892,0.1893,0.1916,0.1917,0.1918,0.1919,0,0.1377,0.139,0.1447,0.147,0.1522,0.1518,0.1553,0.1573,0.1605,0.1725,0.173,0.1824,0.1917,0.1887,0.1903,0.1887,0.1844,0.1761,0.1778,0.1792,0.1713,0.1633,0.1572,0,0,0,0,0,0.1328,0.1335,0.1364,0.1375,0.1423,0.1445,0.1512,0.1548,0.1637,0.16,0.1653,0.1691,0.1701,0.175,0.17,0.1841,0.1862,0.1773,0.1778,0.1851,0.1864,0.1784,0,0,0,0,0,0,0.1295,0.1335,0.1334,0.129,0.128,0.1307,0.1346,0.1407,0.1387,0.1491,0.1508,0.1584,0.1628,0.1714,0.1667,0.1682,0.1646,0.1834,0.1829,0.1843,0.1855,0.1866,0.1789,0,0,0,0,0]},{"header":{"parameterUnit":"m.s-1","parameterCategory":2,"la1":30.2991,"la2":30.254,"lo1":-89.0895,"lo2":-89.0444,"dy":0.0017,"dx":0.0017,"nx":28,"ny":28,"refTime":"2023-10-28T09:00:00:Z","depth":"4","parameterNumber":3,"parameterNumberName":"V-component_of_CURRENTS"},"data":[0,0,0,0,0,0,0,0,0,0,0,0,0,0,0,0,0,0,0,0,0,0,0,0,0,0,0,0,0,0,0,0,0,0,0,0,0,0,0,0,0,0,0,0,0,0,0,0,0,0,0,0,0,0,0,0,0,0,0.0281,0.0281,0,0.0278,0.0278,0.0278,0.028,0.028,0.028,0.028,0.0273,0.0273,0.0273,0,0,0,0,0,0,0,0,0,0,0,0,0,0.0279,0.0279,0.0281,0.0281,0.0281,0.0279,0.0278,0.0278,0.028,0.028,0.028,0.028,0.0274,0.0273,0.0273,0,0,0,0,0,0,0,0,0,0,0,0,0,0.0278,0.0279,0.0281,0.0281,0.0282,0.0279,0.0278,0.0278,0.028,0.028,0.028,0.0281,0.0274,0.0273,0.0273,0.0267,0,0,0.0272,0.0271,0,0,0,0,0,0,0,0,0.0278,0.0278,0.0281,0.0281,0.0281,0.028,0.0275,0.0274,0.028,0.028,0.028,0.0281,0.0275,0.0275,0.0274,0.0267,0.0267,0.0272,0.0271,0.0271,0.0271,0,0,0,0,0,0,0,0.0278,0.0278,0.0279,0.0281,0.0281,0.0279,0.028,0.0275,0.0277,0.028,0.028,0.0281,0.0275,0.0274,0.0273,0.0266,0.0272,0.0271,0.0271,0.0271,0.0269,0.0269,0,0,0,0,0,0,0.0279,0.0278,0.0279,0.0279,0.0281,0.0279,0.028,0.028,0.0277,0.0277,0.0281,0.0281,0.0275,0.0274,0.0273,0.0288,0.0271,0.0271,0.027,0.0269,0.0269,0.0269,0,0,0,0,0,0,0.0279,0.028,0.028,0.0279,0.0279,0.0279,0.028,0.028,0.0285,0.0277,0.0277,0.0286,0.0275,0.0274,0.0277,0.0287,0.027,0.027,0.0269,0.0269,0.0269,0.0304,0,0,0,0,0,0,0.0279,0.028,0.0284,0.0279,0.0279,0.0284,0.028,0.028,0.0284,0.0285,0.0282,0.0281,0.0275,0.0278,0.0276,0.0286,0.027,0.0268,0.0269,0.0269,0.0303,0.0306,0.0308,0,0,0,0,0,0.0279,0.0285,0.0284,0.0285,0.0284,0.0285,0.0285,0.0285,0.0285,0.029,0.0288,0.0281,0.0279,0.0277,0.0276,0.0286,0.0268,0.0269,0.0269,0.0302,0.0305,0.0308,0,0,0,0,0,0,0.0287,0.0285,0.0285,0.029,0.029,0.0285,0.0291,0.0289,0.0291,0.0294,0.0285,0.0284,0.0289,0.0281,0.028,0.0286,0.0272,0.0272,0.0297,0.03,0.0303,0.031,0.0269,0,0,0,0,0,0.0291,0.0296,0.0291,0.0298,0.0298,0.0295,0.0297,0.0297,0.0296,0.0298,0.0295,0.0292,0.0288,0.029,0.0284,0.029,0.0266,0.0294,0.0297,0.03,0.0303,0.0272,0.0272,0.0271,0.0271,0.0271,0,0,0.0297,0.0296,0.03,0.03,0.0301,0.0307,0.0297,0.0303,0.0313,0.0296,0.031,0.03,0.029,0.0296,0.0298,0.0294,0.0286,0.03,0.0302,0.0305,0.0273,0.0273,0.0273,0.0271,0.0271,0.0271,0,0,0.031,0.031,0.0318,0.0319,0.0322,0.0321,0.0325,0.0324,0.0329,0.0337,0.0326,0.0323,0.0322,0.0317,0.0313,0.0327,0.0298,0.0325,0.0349,0.0319,0.0318,0.0318,0.0283,0.0279,0.033,0.033,0.033,0,0.0319,0.0327,0.0321,0.0327,0.0336,0.033,0.0343,0.0345,0.0347,0.0352,0.0348,0.034,0.0332,0.0335,0.0341,0.0334,0.0308,0.0339,0.0322,0.0321,0.032,0.0284,0.0279,0.0332,0.0332,0.0331,0.0331,0,0.0335,0.0344,0.035,0.0358,0.0365,0.0376,0.0378,0.0386,0.039,0.0389,0.0393,0.0379,0.0375,0.0371,0.0362,0.0355,0.0336,0.0325,0.0315,0.0322,0.0284,0.0278,0.0334,0.0334,0.0333,0.0333,0,0,0.0353,0.036,0.0365,0.0378,0.0385,0.0396,0.0411,0.0423,0.0438,0.0432,0.0445,0.0433,0.0422,0.0416,0.0401,0.0378,0.0347,0.0354,0.0351,0.0321,0.0273,0.0266,0.0259,0.0332,0.0331,0.0331,0.0248,0,0.0372,0.0392,0.0392,0.0424,0.0437,0.044,0.0458,0.0468,0.0471,0.048,0.046,0.0464,0.044,0.0442,0.0414,0.0367,0.0335,0.0371,0.0269,0.0266,0.026,0.0253,0.0329,0.0243,0.0242,0.0241,0.024,0,0.0392,0.0404,0.0434,0.0462,0.047,0.0491,0.0523,0.0538,0.0539,0.0541,0.0532,0.0512,0.0487,0.0463,0.0379,0.0402,0.0341,0.0297,0.0293,0.0271,0.0249,0.0234,0.023,0.0231,0.0231,0.0232,0.0233,0,0.0414,0.0438,0.0468,0.0476,0.0502,0.0526,0.0546,0.0559,0.0581,0.0581,0.0591,0.0548,0.0537,0.0456,0.037,0.0371,0.0267,0.0255,0.0186,0.0185,0.02,0.0202,0.0185,0.0185,0.0185,0.0185,0.0185,0,0.0435,0.0461,0.0484,0.0502,0.055,0.0558,0.0608,0.0618,0.0636,0.0664,0.0627,0.0631,0.0535,0.0467,0.0376,0.0267,0.0267,0.0187,0.0164,0.0216,0.022,0.0196,0.0198,0.0182,0.0183,0.0183,0.0184,0,0.0454,0.0467,0.0506,0.0543,0.0563,0.0599,0.0655,0.0684,0.0697,0.073,0.0734,0.0691,0.0608,0.0498,0.0366,0.0284,0.0174,0.0131,0.0194,0.0175,0.0107,0.0112,0.0045,0.0044,0.0043,0.0042,0.0042,0,0.0462,0.0484,0.054,0.0572,0.0595,0.0649,0.0688,0.0717,0.0749,0.0767,0.0783,0.0721,0.0676,0.0484,0.0363,0.018,0.0154,0.0084,0.0096,0.0109,0.0093,0.0099,0.0105,0.0041,0.004,0.004,0.004,0,0.0482,0.0506,0.0538,0.06,0.0651,0.0708,0.0764,0.079,0.0824,0.0836,0.0819,0.0729,0.0635,0.0488,0.0346,0.0215,0.0124,0.0075,0.0076,0.0087,0.0103,0.0089,0.0096,0.0037,0.0038,0.0038,0.0038,0,0.0501,0.0524,0.0568,0.0623,0.0688,0.0745,0.0776,0.081,0.0839,0.0855,0.0847,0.075,0.0695,0.0506,0.0376,0.0248,0.0213,0.0157,0.0153,0.0154,0.0213,0.0251,0.0209,0,0,0,0,0,0.0511,0.0536,0.0586,0.0644,0.0708,0.0746,0.0816,0.084,0.0873,0.0864,0.0857,0.077,0.059,0.0517,0.0386,0.0353,0.0184,0.0194,0.0117,0.0022,0.0025,0.0075,0,0,0,0,0,0,0.0515,0.0562,0.0579,0.0649,0.0691,0.0762,0.0809,0.0833,0.0829,0.0843,0.0753,0.0719,0.0548,0.0662,0.0377,0.0341,0.0269,0.0117,0.0113,0.002,0.0023,0.0026,0.0078,0,0,0,0,0]}]]